Temperature
17 17 17 17 17 17 16 16 16 16 16 16 15 15 15 15 15 15 15 14 14 14 14 14 14 14 14 14 13 13 13 13 13 13 13 13 13 13
16 17 16 16 16 16 16 16 16 16 15 15 15 15 15 14 14 14 14 14 14 14 14 13 13 13 13 13 13 13 13 13 13 13 12 12 12 12
16 16 16 16 16 16 16 15 15 15 15 15 14 14 14 14 14 14 13 13 13 13 13 13 13 13 13 12 12 12 12 12 12 12 12 12 12 12
16 16 16 15 15 15 15 15 15 15 15 14 14 13 13 13 13 13 13 13 13 12 12 12 12 12 12 12 12 11 11 11 11 11 11 11 11 11
15 15 15 15 15 15 15 15 15 15 14 14 13 13 13 13 12 12 12 12 12 12 12 12 11 11 11 11 11 11 11 11 11 11 11 10 10 10
15 15 15 15 15 15 15 14 14 14 14 14 13 12 12 12 12 12 12 11 11 11 11 11 11 11 10 10 10 10 10 10 10 10 10 10 10 10
15 15 14 14 14 14 14 14 14 14 13 13 12 12 12 12 12 11 11 11 11 11 10 10 10 10 10 10 10 10 10 9 9 9 9 9 9 9
14 14 14 14 14 14 13 13 13 13 13 12 12 12 11 11 11 11 11 11 10 10 10 10 10 10 10 10 9 9 9 9 9 9 9 8 8 8
13 13 13 13 13 13 13 13 12 12 12 12 12 11 11 11 11 11 11 10 10 10 10 9 9 9 9 9 9 9 8 8 8 8 8 8 8 8
13 13 13 13 12 12 12 12 12 12 11 11 11 11 11 11 11 10 10 10 10 10 10 9 9 9 9 9 9 8 8 8 8 8 8 7 7 7
13 12 12 12 12 12 12 12 11 11 11 11 11 11 10 10 10 10 10 10 10 10 9 9 9 9 9 9 9 8 8 8 8 7 7 7 7 7
12 12 12 12 12 11 11 11 11 11 11 11 11 10 10 10 10 10 10 10 10 9 9 9 9 9 9 9 9 8 8 8 8 7 7 7 7 7
12 11 11 11 11 11 11 11 11 11 11 10 10 10 10 10 10 10 10 10 9 9 9 9 9 9 9 8 8 8 8 8 8 7 7 7 7 7
11 11 11 11 11 11 11 10 10 10 10 10 10 10 9 9 9 9 9 9 9 9 9 9 9 9 9 8 8 8 8 8 7 7 7 7 7 6
11 11 10 10 10 10 10 10 10 10 10 10 9 9 9 9 9 9 9 9 9 9 9 9 9 9 8 8 8 8 8 7 7 7 7 7 7 6
10 10 10 10 10 10 10 10 10 10 9 9 9 9 9 9 9 9 9 9 9 9 9 8 8 8 8 8 8 8 8 7 7 7 7 7 7 7
10 10 10 10 10 10 10 10 9 9 9 9 9 9 9 9 9 9 9 8 8 8 8 8 8 8 8 8 8 8 8 7 7 7 7 7 7 7
10 10 10 10 10 10 10 10 9 9 9 9 9 9 9 9 9 9 9 9 8 8 8 8 8 8 8 8 8 7 7 7 7 7 7 7 7 7
10 10 10 10 10 10 10 9 9 9 9 9 9 9 9 9 9 9 9 8 8 8 8 8 8 8 8 7 7 7 7 7 7 7 7 7 7 7
10 10 10 10 10 9 9 9 9 9 9 9 9 9 9 9 9 9 8 8 8 8 8 8 8 8 7 7 7 7 7 7 7 7 7 7 7 7
10 10 10 10 9 9 9 9 9 9 9 9 8 8 8 8 8 8 8 8 8 8 8 8 8 8 7 7 7 7 7 7 7 7 7 7 7 7
10 10 10 9 9 9 9 9 9 9 8 8 8 8 8 8 8 8 8 8 8 8 8 8 8 7 7 7 7 7 7 7 7 7 7 7 7 6
10 10 9 9 9 9 9 9 8 8 8 8 8 8 8 8 8 8 8 8 8 8 7 7 7 7 7 7 7 7 7 7 7 7 7 7 7 7
Wind_Speed
2 2 2 2 1 1 1 2 2 2 2 1 1 3 5 8 9 8 9 10 9 9 8 8 8 8 8 9 8 8 7 7 7 7 6 5 5 4
1 2 3 2 2 1 1 1 1 1 1 0 1 2 4 6 9 10 11 13 11 11 10 10 10 10 10 10 10 10 10 9 8 8 7 7 7 6
2 2 2 3 2 2 1 1 0 1 1 1 2 3 4 4 6 8 10 10 10 11 11 11 11 11 11 11 11 11 11 10 10 9 9 9 9 8
3 3 3 3 3 3 2 2 1 1 3 2 2 2 3 3 5 5 7 9 10 11 12 12 12 11 11 11 11 11 11 11 11 10 10 9 9 9
5 5 4 4 4 3 3 2 1 1 3 3 3 2 2 2 4 4 5 6 7 9 10 10 11 11 10 10 10 10 11 11 10 10 10 10 9 9
5 6 6 6 5 5 4 4 3 2 3 4 3 2 2 1 2 3 3 2 3 5 7 8 9 9 9 9 9 9 9 9 9 9 9 9 9 9
6 6 8 9 10 7 6 5 4 3 3 4 3 2 2 1 1 1 3 3 3 2 2 4 6 6 7 7 7 7 8 8 7 8 8 8 8 8
5 5 6 8 9 10 11 10 7 5 4 4 3 3 2 1 1 1 1 2 1 1 2 2 4 3 5 5 5 5 5 5 5 5 6 6 6 7
5 5 5 7 6 5 7 8 8 9 6 4 4 2 2 2 1 1 1 1 1 1 1 1 2 2 5 6 6 5 5 4 3 3 3 3 3 4
5 5 6 6 7 6 5 6 7 6 6 4 3 3 3 2 1 0 2 2 1 1 1 1 1 2 3 7 7 7 5 4 3 3 2 1 0 1
6 6 6 6 8 8 5 5 5 4 7 9 7 5 5 5 5 2 1 1 1 1 1 1 0 1 2 3 7 8 7 6 6 5 4 4 4 3
5 6 9 8 8 8 4 4 3 2 3 4 4 4 5 5 6 4 2 2 1 1 2 2 1 1 0 1 4 7 7 6 7 7 6 5 4 4
3 4 5 7 7 7 5 3 2 1 0 2 3 3 3 3 4 4 4 2 2 2 2 2 1 1 1 0 1 3 5 5 5 6 7 7 6 4
3 3 4 4 5 5 4 4 5 3 1 2 3 3 3 2 2 3 3 3 2 2 1 1 1 1 1 1 0 1 2 3 4 3 5 7 8 7
3 4 3 1 1 1 2 3 3 2 2 2 2 2 2 2 1 1 0 0 1 0 1 0 1 1 2 1 1 0 1 1 2 2 2 3 4 5
2 3 2 1 1 1 1 1 1 1 2 1 1 1 1 1 1 1 1 0 1 1 0 1 1 1 1 2 1 1 0 1 1 1 1 2 4 5
1 2 2 2 1 1 1 1 1 1 2 2 1 2 1 1 1 1 1 1 1 1 1 0 2 2 1 1 1 1 1 1 1 0 1 2 3 4
1 1 2 2 1 1 1 1 1 1 1 1 2 2 1 1 1 1 1 1 1 1 1 0 1 1 2 1 0 1 1 2 1 1 2 2 3 3
1 2 1 1 1 1 1 1 2 1 1 1 1 1 1 1 1 1 1 1 1 1 1 1 1 2 3 3 2 3 2 2 2 2 3 3 3 3
3 2 1 1 1 1 1 1 1 1 0 1 1 1 2 2 2 2 1 1 2 2 2 1 1 1 2 3 3 4 6 4 3 3 3 3 3 4
3 2 1 1 1 1 1 0 0 0 0 1 1 1 2 2 2 2 1 1 2 2 2 1 2 3 3 2 3 3 3 7 6 4 4 4 4 3
1 1 1 1 1 1 1 1 1 1 1 1 1 1 2 2 3 3 2 2 2 2 2 2 2 2 3 3 4 4 4 4 8 11 11 9 4 4
2 1 1 2 2 2 1 2 2 0 0 1 1 1 2 2 3 3 3 3 3 3 3 3 2 3 3 4 4 4 5 5 4 4 5 11 14 16
Wind_Direction
313 315 300 300 301 296 252 215 200 221 241 199 95 94 103 107 109 105 95 92 94 93 89 83 76 69 66 62 58 55 53 54 55 53 46 38 36 28
348 345 331 326 324 318 264 257 234 215 240 88 83 97 98 96 102 105 99 93 90 89 86 83 81 77 71 66 64 63 63 62 61 57 52 51 46 40
10 7 348 343 339 334 339 350 39 120 154 72 81 85 92 96 104 107 108 101 95 93 90 86 84 79 75 72 68 66 64 62 62 61 61 58 55 49
20 15 2 1 8 9 7 19 38 128 147 147 105 90 94 102 113 108 107 106 105 100 96 91 88 84 79 75 72 69 65 62 61 60 60 59 58 57
34 28 20 19 14 11 22 21 25 91 130 137 129 113 106 109 111 104 102 104 107 107 102 95 90 86 82 79 76 72 67 64 63 63 62 61 59 58
49 43 37 38 30 22 34 29 49 77 103 113 111 98 78 83 118 123 115 98 100 107 103 106 104 91 83 81 79 76 74 71 68 67 65 63 61 59
57 59 60 65 60 53 57 44 47 70 88 98 97 83 69 69 100 122 123 119 89 93 116 116 113 98 90 83 81 83 82 79 75 72 70 68 66 65
64 66 75 70 71 71 70 61 57 65 72 87 87 90 72 46 61 122 125 134 119 120 116 115 123 112 120 114 111 108 100 91 83 75 69 67 68 69
52 46 54 58 53 64 74 71 62 57 67 89 88 78 74 34 29 85 90 101 140 181 153 155 143 129 134 141 147 141 135 125 111 98 85 73 70 72
59 53 58 50 40 40 64 71 66 55 62 81 85 77 68 34 359 75 143 145 138 128 138 184 185 175 154 162 175 172 169 170 169 167 171 176 47 62
69 59 56 53 35 37 65 77 79 82 79 82 87 91 89 67 48 42 45 88 100 68 1 325 193 169 156 162 189 194 195 201 210 218 229 244 246 242
87 74 62 55 44 36 54 72 65 46 63 87 90 90 90 80 65 48 23 11 34 73 22 357 357 26 88 152 171 189 205 219 225 233 238 249 250 238
92 84 64 48 43 33 30 45 33 345 348 113 105 95 81 74 67 57 44 45 38 40 35 359 340 338 286 157 175 189 193 201 213 230 237 244 250 240
75 86 85 61 45 29 24 11 359 348 37 82 87 85 82 75 67 65 75 86 92 128 90 30 342 333 330 332 283 202 200 212 203 213 228 231 242 243
78 96 112 112 51 24 19 360 354 6 36 64 73 79 88 104 105 89 92 211 192 119 91 45 327 330 331 320 318 274 230 234 203 201 229 235 229 222
123 135 161 201 282 354 -0 354 9 21 30 44 63 90 108 105 97 90 57 42 60 22 173 158 220 286 317 318 321 317 326 248 246 193 235 271 279 267
136 173 174 170 179 172 150 132 68 54 35 18 38 57 59 60 49 50 13 0 20 40 44 343 272 276 276 256 301 318 322 305 276 217 294 288 270 264
39 209 179 170 165 146 138 137 114 74 18 13 24 32 32 48 21 342 1 13 13 17 17 357 12 351 323 326 287 296 310 308 301 272 265 270 274 263
243 230 166 151 138 122 123 83 84 82 29 4 3 357 344 337 352 351 1 6 356 344 324 325 15 354 333 327 308 291 278 272 273 269 269 269 269 257
226 224 186 152 136 111 74 73 82 95 36 314 348 352 342 343 350 343 358 358 334 317 315 333 8 345 312 301 286 273 260 243 251 258 268 274 272 271
202 202 205 163 129 123 94 47 52 164 296 305 332 322 321 321 317 310 318 320 300 300 317 316 279 276 259 274 282 278 264 259 254 239 251 266 277 275
232 210 191 166 141 148 169 220 220 212 233 253 272 309 312 313 316 318 319 311 295 300 311 301 273 278 283 282 287 286 278 270 269 268 261 248 241 257
235 231 188 185 182 197 209 228 238 237 351 317 331 327 314 311 308 306 305 308 313 312 310 304 299 295 293 289 288 287 286 285 280 273 269 261 254 253
Height
1552 1552 1552 1553 1553 1553 1554 1555 1556 1556 1557 1557 1558 1557 1557 1556 1556 1557 1557 1556 1556 1555 1555 1555 1554 1553 1552 1552 1551 1550 1550 1549 1548 1548 1548 1548 1548 1548
1551 1551 1550 1551 1551 1551 1551 1552 1553 1554 1554 1554 1555 1555 1555 1555 1555 1555 1555 1555 1554 1554 1554 1553 1552 1551 1550 1549 1549 1548 1547 1546 1545 1545 1544 1544 1544 1544
1549 1549 1549 1549 1549 1549 1549 1550 1550 1551 1551 1552 1553 1553 1553 1553 1554 1554 1553 1553 1553 1553 1552 1551 1551 1550 1549 1548 1547 1546 1545 1544 1543 1543 1542 1541 1541 1541
1548 1548 1548 1548 1548 1548 1548 1548 1548 1549 1549 1549 1550 1551 1551 1552 1552 1552 1552 1552 1552 1551 1551 1550 1550 1549 1548 1546 1546 1545 1544 1543 1542 1541 1540 1539 1539 1538
1548 1547 1547 1547 1546 1546 1546 1546 1547 1547 1547 1547 1548 1549 1549 1550 1551 1551 1551 1551 1551 1550 1550 1549 1549 1548 1547 1545 1545 1544 1542 1541 1540 1539 1538 1537 1537 1536
1547 1547 1546 1546 1545 1545 1545 1545 1545 1545 1545 1546 1546 1547 1548 1549 1549 1549 1549 1550 1550 1550 1549 1549 1548 1547 1546 1545 1544 1543 1542 1540 1539 1538 1537 1536 1535 1534
1547 1547 1546 1546 1545 1545 1544 1544 1544 1544 1545 1545 1546 1546 1547 1548 1548 1549 1549 1549 1549 1549 1549 1548 1547 1546 1546 1545 1544 1542 1541 1540 1539 1538 1536 1535 1534 1533
1547 1547 1547 1546 1545 1545 1545 1544 1544 1544 1544 1544 1545 1546 1546 1547 1548 1548 1548 1548 1548 1549 1549 1548 1547 1546 1546 1545 1543 1542 1541 1540 1538 1537 1536 1535 1534 1533
1547 1547 1547 1546 1546 1545 1545 1545 1545 1545 1545 1545 1545 1545 1546 1546 1547 1547 1547 1547 1547 1548 1548 1547 1547 1546 1546 1545 1544 1542 1541 1540 1538 1537 1536 1535 1534 1533
1548 1547 1547 1546 1546 1546 1546 1545 1545 1546 1546 1546 1546 1546 1546 1546 1547 1547 1547 1547 1547 1547 1547 1547 1546 1546 1545 1544 1544 1543 1541 1540 1539 1537 1536 1535 1534 1533
1548 1547 1547 1547 1547 1546 1546 1546 1546 1547 1547 1547 1547 1546 1546 1546 1547 1547 1547 1547 1546 1546 1546 1546 1546 1545 1544 1544 1543 1542 1541 1540 1539 1537 1536 1535 1534 1533
1548 1548 1547 1547 1547 1547 1546 1546 1547 1547 1547 1547 1547 1547 1547 1547 1547 1546 1546 1546 1546 1546 1545 1545 1545 1544 1544 1543 1543 1542 1541 1540 1539 1537 1536 1535 1534 1532
1548 1548 1548 1548 1547 1547 1547 1547 1547 1548 1548 1548 1548 1547 1547 1547 1547 1546 1546 1546 1545 1545 1545 1544 1544 1543 1543 1542 1542 1541 1540 1539 1538 1537 1536 1535 1534 1533
1548 1548 1548 1549 1548 1548 1548 1548 1548 1548 1548 1548 1548 1548 1547 1547 1547 1546 1546 1546 1545 1545 1544 1544 1543 1543 1542 1542 1541 1541 1540 1539 1538 1537 1536 1534 1533 1532
1549 1549 1549 1549 1549 1549 1549 1549 1549 1549 1549 1549 1549 1548 1548 1548 1547 1547 1546 1546 1545 1545 1544 1543 1542 1542 1541 1541 1540 1539 1539 1538 1537 1536 1535 1534 1533 1532
1550 1550 1550 1550 1550 1550 1550 1550 1550 1550 1550 1550 1549 1549 1549 1548 1548 1547 1547 1546 1545 1545 1544 1543 1542 1541 1540 1539 1539 1538 1538 1537 1536 1535 1534 1533 1532 1531
1549 1550 1550 1550 1550 1550 1551 1551 1550 1550 1550 1550 1550 1549 1549 1549 1548 1548 1547 1546 1546 1545 1544 1543 1542 1541 1540 1539 1538 1537 1537 1536 1535 1534 1533 1532 1531 1530
1549 1549 1550 1550 1551 1551 1551 1551 1551 1551 1550 1550 1550 1550 1549 1549 1548 1548 1547 1547 1546 1545 1544 1543 1542 1540 1540 1538 1538 1536 1535 1535 1534 1532 1531 1530 1529 1528
1549 1549 1550 1550 1551 1551 1551 1551 1551 1550 1550 1550 1550 1550 1550 1549 1548 1548 1547 1546 1545 1545 1543 1542 1541 1540 1539 1537 1536 1536 1534 1533 1532 1531 1530 1528 1527 1526
1548 1549 1549 1550 1550 1550 1550 1550 1550 1550 1550 1550 1550 1549 1549 1548 1548 1547 1546 1545 1545 1544 1542 1541 1540 1539 1538 1537 1535 1533 1532 1531 1530 1528 1527 1526 1524 1523
1548 1548 1548 1549 1549 1549 1549 1549 1549 1549 1549 1549 1549 1548 1548 1547 1547 1546 1545 1544 1543 1542 1541 1540 1539 1538 1536 1534 1533 1531 1530 1529 1527 1526 1524 1523 1521 1520
1547 1547 1547 1547 1547 1547 1547 1547 1547 1547 1547 1547 1547 1547 1546 1546 1545 1544 1544 1543 1542 1540 1539 1538 1537 1535 1534 1532 1530 1529 1527 1526 1524 1523 1521 1520 1519 1517
1545 1545 1546 1546 1545 1545 1545 1545 1545 1545 1545 1545 1544 1544 1544 1544 1543 1543 1542 1541 1539 1538 1537 1535 1534 1533 1531 1530 1528 1526 1524 1523 1521 1519 1518 1517 1516 1514